Location: ??
(35.3149°N, 139.6204°E)
Time: 10:49:05
(UTC+00:00)

Cosmos 2173 Rocket - Pass Details

Date: 03 August 2024
Orbit: 945 x 999 km, 82.9° (Epoch: 06 September)

Event Time Altitude Azimuth Distance (km) Brightness Sun altitude
Exits shadow 13:18:07 55° 16° (NNE) 1,141 4.4 -33.3°
Drops below altitude 10° 13:22:49 10° 8° (N) 2,702 6.9 -33.7°
Sets 13:25:20 0° 8° (N) 3,659 7.8 -33.9°
